Other Public Products
Issued by NWS Grand Forks, ND

Home | Current Version | Previous Version | Graphics & Text | Print | Product List | Glossary On
Versions: 1 2 3 4 5 6 7 8 9 10 11 12 13 14 15 16 17 18 19 20 21 22 23 24 25 26 27 28 29 30 31 32 33 34 35 36 37 38 39 40 41 42 43 44 45 46 47 48 49 50
854
FPUS83 KFGF 181131
OPUFGF
PRAIRIE TO PINES WEATHER ROUNDUP
NATIONAL WEATHER SERVICE EASTERN NORTH DAKOTA/GRAND FORKS ND
500 AM CST SAT NOV 18 2017

 **SATELLITE DATA USED TO AUGMENT SKY COVER AT AUTOMATED STATIONS**
 *****  WEATHER ACROSS EASTERN NORTH DAKOTA  *****

CITY           SKY/WX    TMP DP  RH WIND       PRES   REMARKS
GRAND FORKS    MOCLDY    17  12  80 NW10      29.89R WCI   5
GRND FORKS AFB PTCLDY    17   9  73 NW8       29.90R WCI   6
GRND FORKS NWS   N/A     16 N/A N/A NW10        N/A  WCI   3
BUXTON           N/A     19  15  85 NW12        N/A  WCI   7
DEVILS LAKE    FAIR      14  10  84 W12       29.91R WCI   0
FARGO          CLOUDY    20  16  84 NW8       29.88R WCI  10
WAHPETON ARPT  NOT AVBL
$$

 *****  WEATHER ACROSS CENTRAL AND WESTERN NORTH DAKOTA  *****

CITY           SKY/WX    TMP DP  RH WIND       PRES   REMARKS
JAMESTOWN      CLOUDY    19  14  81 NW18      29.91R WCI   4
BISMARCK       FAIR      23  17  78 NW7       30.00R WCI  15
MINOT          CLOUDY    16   9  74 W15       29.97R WCI   1
MINOT AFB      CLOUDY    15   9  78 NW16      29.96R WCI  -1
GARRISON         N/A     13   9  84 NW12      29.99R WCI  -1
WILLISTON      MOCLDY    14   9  80 W12       30.06R WCI   0
DICKINSON      FAIR      14   9  80 NW10      29.98R WCI   1
HETTINGER      FAIR      24  20  84 N17       29.98R WCI  11
$$

 *****  OTHER OBSERVATIONS NORTHEAST NORTH DAKOTA  *****

CITY           SKY/WX    TMP DP  RH WIND       PRES   REMARKS
WALHALLA       FAIR      16  10  79 NW12      29.90R WCI   3
LANGDON        PTSUNNY   14  12  92 NW18      29.88R WCI  -3
CAVALIER       FAIR      16  10  79 NW10G16   29.90R WCI   3
GRAFTON        FAIR      16  10  79 NW10G16   29.92R WCI   3
CANDO          CLOUDY    12  12 100 NW10      29.94R WCI  -1
FORT TOTTEN      N/A     16  10  78 NW7       29.95S WCI   6
ROLLA          FAIR      12   7  79 NW14G22   29.91R WCI  -3
RUGBY          CLOUDY    10   9  92 W15       29.95R WCI  -6
 ***** THE ABOVE OBSERVATIONS ARE NON NWS ARE NOT QUALITY
        CONTROLLED AND MAY MIS-REPORT RAIN FOR SNOW...
$$

 *****  OTHER OBSERVATIONS SOUTHEAST NORTH DAKOTA *****

CITY           SKY/WX    TMP DP  RH WIND       PRES   REMARKS
COOPERSTOWN    CLOUDY    18  14  86 NW13      29.90R WCI   4
VALLEY CITY    FLURRIES  18  18 100 NW14G21   29.92R WCI   4
OAKES            N/A     18  16  93 NW8       29.90R WCI   7
GWINNER          N/A     21  18  86 NW14      29.89R WCI   8
SHEYENNE NWR     N/A     20  18  91 NW6       29.95S WCI  12
BUFFALO          N/A     20  15  82 SE13        N/A  WCI   7
WYNDMERE       NOT AVBL
 ***** THE ABOVE OBSERVATIONS ARE NON NWS ARE NOT QUALITY
       CONTROLLED AND MAY MIS-REPORT RAIN FOR SNOW...
$$

  *****  WEATHER ACROSS NORTHERN MINNESOTA  *****

CITY           SKY/WX    TMP DP  RH WIND       PRES   REMARKS
FLAG ISLAND    CLOUDY    12   9  85 W7        29.81R WCI   2
WARROAD        FAIR      12   9  85 W6        29.83R WCI   3
ROSEAU         FAIR      14  10  85 W7        29.84R WCI   4
HALLOCK        CLOUDY    16  10  79 NW7       29.88R WCI   6
THF RVR FALLS  FLURRIES  16  12  84 NW8       29.86R WCI   5
HALSTAD          N/A     19  14  81 NW9         N/A  WCI   8
FOSSTON        MOCLDY    14  12  92 W7        29.85R WCI   4
BAUDETTE       FAIR      15  12  88 W8        29.80R WCI   4
WASKISH        FAIR      16  12  86 NW7       29.82R WCI   6
CROOKSTON      CLOUDY    18  12  79 NW12      29.90R WCI   5
$$
  *****  WEATHER ACROSS CENTRAL AND WEST MINNESOTA  *****

CITY           SKY/WX    TMP DP  RH WIND       PRES   REMARKS
BEMIDJI        FAIR      14  12  92 NW7       29.81R WCI   3
PARK RAPIDS    FAIR      19  15  84 NW6       29.78S WCI  11
WADENA         FAIR      19  16  86 NW7       29.81R WCI  10
DETROIT LAKES  FAIR      18  16  93 NW9       29.84R WCI   6
MOORHEAD       CLOUDY    19  16  86 NW10      29.90R WCI   8
FERGUS FALLS   FAIR      18  14  86 NW6       29.89R WCI   9
ELBOW LAKE     FAIR      19  17  91 W10       29.84S WCI   7
MORRIS MN      FAIR      21  18  86 NW14      29.84R WCI   8
STAPLES        FAIR      19  18  93 NW5       29.80R WCI  13
WHEATON        FAIR      19  16  86 W6        29.89S WCI  11
$$
  *****  WEATHER ELSEWHERE ACROSS MINNESOTA  *****

CITY           SKY/WX    TMP DP  RH WIND       PRES   REMARKS
DULUTH         CLOUDY    27  25  92 NW8       29.71R WCI  19
INTRNTL FALLS  FAIR      13  10  88 W5        29.77R FOG     WCI   5
ELY            CLOUDY    25  21  86 NW7       29.73R WCI  17
CLOQUET        FAIR      27  23  86 NW7       29.73S WCI  19
BRAINERD       FAIR      26  20  77 NW9       29.78R WCI  17
HIBBING        FAIR      21  17  84 NW8       29.74R WCI  11
ALEXANDRIA     FAIR      23  19  85 N5        29.80R WCI  17
SAINT CLOUD    FAIR      30  27  88 NW9       29.78R WCI  22
MINNEAPOLIS    CLOUDY    34  33  96 N10       29.73R
$$

  *****  WEATHER ACROSS SOUTH DAKOTA  *****

CITY           SKY/WX    TMP DP  RH WIND       PRES   REMARKS
SIOUX FALLS    MOCLDY    34  26  72 NW14      29.81R WCI  25
BROOKINGS      FAIR      28  23  81 NW8       29.83R WCI  20
WATERTOWN      FAIR      23  20  88 N7        29.81R WCI  15
HURON          FAIR      25  19  78 N6        29.87S WCI  18
SISSETON         N/A     21  17  84 N7        29.86R WCI  12
ABERDEEN       FAIR      19  17  92 N7        29.89R WCI  10
MITCHELL       FAIR      29  22  75 NW10      29.89R WCI  20
PIERRE         FAIR      35  31  85 NW16      29.92R
MOBRIDGE       FAIR      31  26  82 NW15      29.90R WCI  20
RAPID CITY     MOCLDY    35  21  56 NW17G29   30.01R WCI  25
$$

  *****  SOME WEATHER IN NEARBY STATES *****

CITY           SKY/WX    TMP DP  RH WIND       PRES   REMARKS
GLASGOW MT     FAIR      11   8  88 NW10      30.06F WCI  -3
GREAT FALLS MT MOCLDY    34  19  54 SW15G28   30.05R WCI  24
CHEYENNE WY    FAIR      23  16  74 NW10      30.09R WCI  12
SCOTTSBLUFF NE FAIR      32  19  58 NW14      30.09R WCI  22
OMAHA NE       LGT RAIN  39  35  86 NW20G32   29.74R
DES MOINES IA  LGT RAIN  40  38  93 N14G22    29.64R
DAVENPORT IA   LGT RAIN  41  40  96 NE12      29.51F FOG
CHICAGO IL     CLOUDY    46  42  86 N12       29.50S
EAU CLAIRE WI  CLOUDY    35  33  92 N6        29.68R FOG
LA CROSSE WI   CLOUDY    38  35  89 N13       29.64R
$$

  *****  SOME NATIONAL WEATHER *****

CITY           SKY/WX    TMP DP  RH WIND       PRES   REMARKS
LA GUARDIA NY  MOCLDY    37  21  52 S3        30.00S
RALEIGH NC     MOCLDY    38  35  89 SW7       30.06S
ATLANTA GA     FAIR      47  45  93 CALM      30.02S
NEW ORLEANS LA MOCLDY    68  66  93 S7        29.91S
OKLAHOMA CITY  FAIR      54  43  66 NW35G43   29.65R
ALBUQUERQUE NM FAIR      42  19  39 N9G23     30.22R
SALT LAKE CITY FAIR      32  24  72 SE7       30.40S
LOS ANGELES CA FAIR      59  55  87 CALM      30.12S
BOISE ID       FAIR      30  24  78 SE9       30.39S WCI  22
SEATTLE WA     MOCLDY    46  39  76 S13       30.31S
$$

*** WEATHER ACROSS MANITOBA...SASKATCHEWAN AND ONTARIO ***
                ***ONTARIO***

CITY           SKY/WX    TMP DP  RH WIND       PRES   REMARKS
GERALDTON      CLOUDY    27  25  93 N7        29.63S FOG     WCI  19
THUNDER BAY    CLOUDY    32  28  86 N5        29.70R
SIOUX LOOKOUT  CLOUDY    16  12  86 N5        29.73R WCI   9
TORONTO        LGT RAIN  39  34  81 SE7       29.61F
BIG TROUT LK   MOCLDY     9   5  85 W7        29.68S WCI  -3
PICKLE LAKE    FLURRIES  16  10  79 W9        29.70  WCI   4
DRYDEN         PTCLDY    10   9  92 NW5       29.74R WCI   2
KENORA         MOCLDY    14  10  85 W7        29.77  WCI   4
$$
                *** MANITOBA***

CITY           SKY/WX    TMP DP  RH WIND       PRES   REMARKS
BRANDON        CLOUDY    12   5  73 NW16      29.91R WCI  -4
DAUPHIN        CLEAR      9   3  78 W13       29.92R WCI  -7
ISLAND LAKE    NOT AVBL
PILOT MOUND      N/A     12   9  85 NW12        N/A  WCI  -2
THE PAS        FLURRIES  10   5  79 W14       29.83R WCI  -5
THOMPSON       PTCLDY     1  -6  71 W12G18    29.67R WCI -15
WINNIPEG       LGT SNOW  14   9  79 NW7       29.89R WCI   4
LYNN LAKE      CLEAR      1  -4  78 W18G31    29.64S WCI -19
CHURCHILL      CRYSTALS   1  -4  78 W14G24    29.45R WCI -17
GILLAM         FLURRIES   9   1  72 W15       29.58  WCI  -8
$$
                ***SASKATCHEWAN***

CITY           SKY/WX    TMP DP  RH WIND       PRES   REMARKS
ESTEVAN        FLURRIES  10   5  79 NW14G21   30.02R WCI  -5
KINDERSLEY     PTCLDY     0  -4  85 W12       29.98S WCI -18
LLOYDMINSTER   FLURRIES   1  -2  85 SW6       29.92S WCI -10
PRINCE ALBERT  CLEAR     -4  -8  84 W9        29.98R WCI -20
REGINA         PTCLDY     1  -4  78 W12       30.01R WCI -15
YORKTON        CLEAR      1  -4  78 W10       29.94R WC



USA.gov is the U.S. government's official web portal to all federal, state and local government web resources and services.